Year,Month,Day,Hour,Minute,Value (Times are PST for temperature in C)
2007,07,06,14,05,22.00
2007,07,06,14,06,22.20
2007,07,06,14,52,22.40
2007,07,06,14,53,22.50
2007,07,06,14,54,22.60
2007,07,06,14,55,22.60
2007,07,06,14,56,22.60
2007,07,06,14,57,22.60
2007,07,06,14,58,22.50
2007,07,06,14,59,22.40
2007,07,06,15,00,22.40
2007,07,06,15,01,22.30
2007,07,06,15,02,22.30
2007,07,06,15,03,22.20
2007,07,06,15,04,22.20
2007,07,06,15,05,22.30
2007,07,06,15,06,22.40
2007,07,06,15,07,22.40
2007,07,06,15,08,22.40
2007,07,06,15,09,22.40
2007,07,06,15,10,22.40
2007,07,06,15,11,22.40
2007,07,06,15,12,22.30
2007,07,06,15,13,22.20
2007,07,06,15,14,22.10
2007,07,06,15,15,22.00
2007,07,06,15,16,21.90
2007,07,06,15,17,21.90
2007,07,06,15,18,21.90
2007,07,06,15,19,21.90
2007,07,06,15,20,21.90
2007,07,06,15,21,21.90
2007,07,06,15,22,21.90
2007,07,06,15,23,21.80
2007,07,06,15,24,21.70
2007,07,06,15,25,21.60
2007,07,06,15,26,21.60
2007,07,06,15,27,21.60
2007,07,06,15,28,21.50
2007,07,06,15,29,21.50
2007,07,06,15,30,21.40
2007,07,06,15,31,21.40
2007,07,06,15,32,21.40
2007,07,06,15,33,21.40
2007,07,06,15,34,21.40
2007,07,06,15,35,21.40
2007,07,06,15,36,21.30
2007,07,06,15,37,21.30
2007,07,06,15,38,21.30
2007,07,06,15,39,21.50
2007,07,06,15,40,21.60
2007,07,06,15,41,21.50
2007,07,06,15,42,21.50
2007,07,06,15,43,21.40
2007,07,06,15,44,21.40
2007,07,06,15,45,21.30
2007,07,06,15,46,21.30
2007,07,06,15,47,21.40
2007,07,06,15,48,21.30
2007,07,06,15,49,21.30
2007,07,06,15,50,21.30
2007,07,06,15,51,21.20
2007,07,06,15,52,21.20
2007,07,06,15,53,21.10
2007,07,06,15,54,21.20
2007,07,06,15,55,21.20
2007,07,06,15,56,21.20
2007,07,06,15,57,21.30
2007,07,06,15,58,21.40
2007,07,06,15,59,21.50
2007,07,06,16,00,21.60
2007,07,06,16,01,21.60
2007,07,06,16,02,21.50
2007,07,06,16,03,21.50
2007,07,06,16,04,21.50
2007,07,06,16,05,21.60
2007,07,06,16,06,21.70
2007,07,06,16,07,21.70
2007,07,06,16,08,21.70
2007,07,06,16,09,21.70
2007,07,06,16,10,21.60
2007,07,06,16,11,21.70
2007,07,06,16,12,21.70
2007,07,06,16,13,21.60
2007,07,06,16,14,21.70
2007,07,06,16,15,21.80
2007,07,06,16,16,21.90
2007,07,06,16,17,22.00
2007,07,06,16,18,22.00
2007,07,06,16,19,22.00
2007,07,06,16,20,21.90
2007,07,06,16,21,22.00
2007,07,06,16,22,22.00
2007,07,06,16,23,22.00
2007,07,06,16,24,22.10
2007,07,06,16,25,22.20
2007,07,06,16,26,22.30
2007,07,06,16,27,22.40
2007,07,06,16,28,22.40
2007,07,06,16,29,22.50
2007,07,06,16,30,22.50
2007,07,06,16,31,22.50
2007,07,06,16,32,22.60
2007,07,06,16,33,22.70
2007,07,06,16,34,22.70
2007,07,06,16,35,22.70
2007,07,06,16,36,22.70
2007,07,06,16,37,22.60
2007,07,06,16,38,22.50
2007,07,06,16,39,22.60
2007,07,06,16,40,22.60
2007,07,06,16,41,22.60
2007,07,06,16,42,22.60
2007,07,06,16,43,22.60
2007,07,06,16,44,22.60
2007,07,06,16,45,22.60
2007,07,06,16,46,22.60
2007,07,06,16,47,22.70
2007,07,06,16,48,22.70
2007,07,06,16,49,22.70
2007,07,06,16,50,22.80
2007,07,06,16,51,22.90
2007,07,06,16,52,23.00
2007,07,06,16,53,23.20
2007,07,06,16,54,23.10
2007,07,06,16,55,23.10
2007,07,06,16,56,23.10
2007,07,06,16,57,23.10
2007,07,06,16,58,23.10
2007,07,06,16,59,23.10
2007,07,06,17,00,23.10
2007,07,06,17,01,23.30
2007,07,06,17,02,23.30
2007,07,06,17,03,23.40
2007,07,06,17,04,23.50
2007,07,06,17,05,23.70
2007,07,06,17,06,23.80
2007,07,06,17,07,23.80
2007,07,06,17,08,23.90
2007,07,06,17,09,24.10
2007,07,06,17,10,24.20
2007,07,06,17,11,24.30
2007,07,06,17,12,24.40
2007,07,06,17,13,24.30
2007,07,06,17,14,24.20
2007,07,06,17,15,24.00
2007,07,06,17,16,23.90
2007,07,06,17,17,23.90
2007,07,06,17,18,23.90
2007,07,06,17,19,24.00
2007,07,06,17,20,24.00
2007,07,06,17,21,24.10
2007,07,06,17,22,24.30
2007,07,06,17,23,24.30
2007,07,06,17,24,24.40
2007,07,06,17,25,24.50
2007,07,06,17,26,24.60
2007,07,06,17,27,24.60
2007,07,06,17,28,24.60
2007,07,06,17,29,24.40
2007,07,06,17,30,24.40
2007,07,06,17,31,24.40
2007,07,06,17,32,24.40
2007,07,06,17,33,24.40
2007,07,06,17,34,24.40
2007,07,06,17,35,24.40
2007,07,06,17,36,24.30
2007,07,06,17,37,24.30
2007,07,06,17,38,24.40
2007,07,06,17,39,24.40
2007,07,06,17,40,24.50
2007,07,06,17,41,24.60
2007,07,06,17,42,24.60
2007,07,06,17,43,24.50
2007,07,06,17,44,24.40
2007,07,06,17,45,24.40
2007,07,06,17,46,24.40
2007,07,06,17,47,24.50
2007,07,06,17,48,24.50
2007,07,06,17,49,24.30
2007,07,06,17,50,24.20
2007,07,06,17,51,24.20
2007,07,06,17,52,24.10
2007,07,06,17,53,24.00
2007,07,06,17,54,23.90
2007,07,06,17,55,23.80
2007,07,06,17,56,23.70
2007,07,06,17,57,23.60
2007,07,06,17,58,23.50
2007,07,06,17,59,23.30
2007,07,06,18,00,23.30
2007,07,06,18,01,23.20
2007,07,06,18,02,23.20
2007,07,06,18,03,23.20
2007,07,06,18,04,23.20
2007,07,06,18,05,23.20
2007,07,06,18,06,23.20
2007,07,06,18,07,23.10
2007,07,06,18,08,23.10
2007,07,06,18,09,23.20
2007,07,06,18,10,23.20
2007,07,06,18,11,23.30
2007,07,06,18,12,23.30
2007,07,06,18,13,23.40
2007,07,06,18,14,23.50
2007,07,06,18,15,23.50
2007,07,06,18,16,23.60
2007,07,06,18,17,23.60
2007,07,06,18,18,23.60
2007,07,06,18,19,23.70
2007,07,06,18,20,23.70
2007,07,06,18,21,23.80
2007,07,06,18,22,23.90
2007,07,06,18,23,24.00
2007,07,06,18,24,24.10
2007,07,06,18,25,24.20
2007,07,06,18,26,24.10
2007,07,06,18,27,24.10
2007,07,06,18,28,23.90
2007,07,06,18,29,23.80
2007,07,06,18,30,23.70
2007,07,06,18,31,23.50
2007,07,06,18,32,23.40
2007,07,06,18,33,23.30
2007,07,06,18,34,23.20
2007,07,06,18,35,23.20
2007,07,06,18,36,23.20
2007,07,06,18,37,23.10
2007,07,06,18,38,23.00
2007,07,06,18,39,22.90
2007,07,06,18,40,22.90
2007,07,06,18,41,23.00
2007,07,06,18,42,23.00
2007,07,06,18,43,23.00
2007,07,06,18,44,23.00
2007,07,06,18,45,23.00
2007,07,06,18,46,22.90
2007,07,06,18,47,22.90
2007,07,06,18,48,22.90
2007,07,06,18,49,22.90
2007,07,06,18,50,22.90
2007,07,06,18,51,22.90
2007,07,06,18,52,22.90
2007,07,06,18,53,22.90
2007,07,06,18,54,22.90
2007,07,06,18,55,22.90
2007,07,06,18,56,22.90
2007,07,06,18,57,22.80
2007,07,06,18,58,22.80
2007,07,06,18,59,22.80
2007,07,06,19,00,22.80
2007,07,06,19,01,22.70
2007,07,06,19,02,22.70
2007,07,06,19,03,22.70
2007,07,06,19,04,22.60
2007,07,06,19,05,22.60
2007,07,06,19,06,22.60
2007,07,06,19,07,22.60
2007,07,06,19,08,22.50
2007,07,06,19,09,22.50
2007,07,06,19,10,22.50
2007,07,06,19,11,22.50
2007,07,06,19,12,22.50
2007,07,06,19,13,22.40
2007,07,06,19,14,22.40
2007,07,06,19,15,22.30
2007,07,06,19,16,22.30
2007,07,06,19,17,22.30
2007,07,06,19,18,22.20
2007,07,06,19,19,22.20
2007,07,06,19,20,22.20
2007,07,06,19,21,22.20
2007,07,06,19,22,22.20
2007,07,06,19,23,22.10
2007,07,06,19,24,22.10
2007,07,06,19,25,22.00
2007,07,06,19,26,22.00
2007,07,06,19,27,21.90
2007,07,06,19,28,21.90
2007,07,06,19,29,21.80
2007,07,06,19,30,21.80
2007,07,06,19,31,21.70
2007,07,06,19,32,21.70
2007,07,06,19,33,21.70
2007,07,06,19,34,21.70
2007,07,06,19,35,21.70
2007,07,06,19,36,21.70
2007,07,06,19,37,21.70
2007,07,06,19,38,21.80
2007,07,06,19,39,21.90
2007,07,06,19,40,21.90
2007,07,06,19,41,21.90
2007,07,06,19,42,21.90
2007,07,06,19,43,21.90
2007,07,06,19,44,21.80
2007,07,06,19,45,21.80
2007,07,06,19,46,21.70
2007,07,06,19,47,21.60
2007,07,06,19,48,21.60
2007,07,06,19,49,21.60
2007,07,06,19,50,21.60
2007,07,06,19,51,21.60
2007,07,06,19,52,21.60
2007,07,06,19,53,21.60
2007,07,06,19,54,21.50
2007,07,06,19,55,21.50
2007,07,06,19,56,21.40
2007,07,06,19,57,21.40
2007,07,06,19,58,21.40
2007,07,06,19,59,21.40
2007,07,06,20,00,21.40
2007,07,06,20,01,21.30
2007,07,06,20,02,21.30
2007,07,06,20,03,21.30
2007,07,06,20,04,21.30
2007,07,06,20,05,21.30
2007,07,06,20,06,21.30
2007,07,06,20,07,21.20
2007,07,06,20,08,21.20
2007,07,06,20,09,21.10
2007,07,06,20,10,21.00
2007,07,06,20,11,21.00
2007,07,06,20,12,20.90
2007,07,06,20,13,20.80
2007,07,06,20,14,20.80
2007,07,06,20,15,20.80
2007,07,06,20,16,20.70
2007,07,06,20,17,20.70
2007,07,06,20,18,20.60
2007,07,06,20,19,20.60
2007,07,06,20,20,20.60
2007,07,06,20,21,20.60
2007,07,06,20,22,20.60
2007,07,06,20,23,20.60
2007,07,06,20,24,20.50
2007,07,06,20,25,20.50
2007,07,06,20,26,20.50
2007,07,06,20,27,20.40
2007,07,06,20,28,20.40
2007,07,06,20,29,20.40
2007,07,06,20,30,20.30
2007,07,06,20,31,20.20
2007,07,06,20,32,20.10
2007,07,06,20,33,20.10
2007,07,06,20,34,20.00
2007,07,06,20,35,20.00
2007,07,06,20,36,19.90
2007,07,06,20,37,19.90
2007,07,06,20,38,19.80
2007,07,06,20,39,19.80
2007,07,06,20,40,19.80
2007,07,06,20,41,19.70
2007,07,06,20,42,19.70
2007,07,06,20,43,19.70
2007,07,06,20,44,19.70
2007,07,06,20,45,19.70
2007,07,06,20,46,19.60
2007,07,06,20,47,19.60
2007,07,06,20,48,19.50
2007,07,06,20,49,19.40
2007,07,06,20,50,19.40
2007,07,06,20,51,19.30
2007,07,06,20,52,19.30
2007,07,06,20,53,19.20
2007,07,06,20,54,19.10
2007,07,06,20,55,19.00
2007,07,06,20,56,18.90
2007,07,06,20,57,18.90
2007,07,06,20,58,18.80
2007,07,06,20,59,18.70
2007,07,06,21,00,18.70
2007,07,06,21,01,18.60
2007,07,06,21,02,18.50
2007,07,06,21,03,18.40
2007,07,06,21,04,18.30
2007,07,06,21,05,18.30
2007,07,06,21,06,18.20
2007,07,06,21,07,18.10
2007,07,06,21,08,18.00
2007,07,06,21,09,18.00
2007,07,06,21,10,17.90
2007,07,06,21,11,17.90
2007,07,06,21,12,17.80
2007,07,06,21,13,17.80
2007,07,06,21,14,17.80
2007,07,06,21,15,17.80
2007,07,06,21,16,17.70
2007,07,06,21,17,17.60
2007,07,06,21,18,17.50
2007,07,06,21,19,17.40
2007,07,06,21,20,17.40
2007,07,06,21,21,17.30
2007,07,06,21,22,17.20
2007,07,06,21,23,17.20
2007,07,06,21,24,17.20
2007,07,06,21,25,17.20
2007,07,06,21,26,17.10
2007,07,06,21,27,17.10
2007,07,06,21,28,17.10
2007,07,06,21,29,17.10
2007,07,06,21,30,17.00
2007,07,06,21,31,17.00
2007,07,06,21,32,17.00
2007,07,06,21,33,17.00
2007,07,06,21,34,17.00
2007,07,06,21,35,17.00
2007,07,06,21,36,16.90
2007,07,06,21,37,16.90
2007,07,06,21,38,16.90
2007,07,06,21,39,16.90
2007,07,06,21,40,16.90
2007,07,06,21,41,16.80
2007,07,06,21,42,16.80
2007,07,06,21,43,16.80
2007,07,06,21,44,16.80
2007,07,06,21,45,16.80
2007,07,06,21,46,16.70
2007,07,06,21,47,16.70
2007,07,06,21,48,16.70
2007,07,06,21,49,16.70
2007,07,06,21,50,16.70
2007,07,06,21,51,16.70
2007,07,06,21,52,16.60
2007,07,06,21,53,16.60
2007,07,06,21,54,16.50
2007,07,06,21,55,16.40
2007,07,06,21,56,16.40
2007,07,06,21,57,16.40
2007,07,06,21,58,16.30
2007,07,06,21,59,16.30
2007,07,06,22,00,16.30
2007,07,06,22,01,16.20
2007,07,06,22,02,16.20
2007,07,06,22,03,16.10
2007,07,06,22,04,16.10
2007,07,06,22,05,16.10
2007,07,06,22,06,16.10
2007,07,06,22,07,16.00
2007,07,06,22,08,16.00
2007,07,06,22,09,15.90
2007,07,06,22,10,15.90
2007,07,06,22,11,15.90
2007,07,06,22,12,15.90
2007,07,06,22,13,15.90
2007,07,06,22,14,15.80
2007,07,06,22,15,15.80
2007,07,06,22,16,15.80
2007,07,06,22,17,15.70
2007,07,06,22,18,15.70
2007,07,06,22,19,15.70
2007,07,06,22,20,15.60
2007,07,06,22,21,15.60
2007,07,06,22,22,15.50
2007,07,06,22,23,15.40
2007,07,06,22,24,15.40
2007,07,06,22,25,15.40
2007,07,06,22,26,15.30
2007,07,06,22,27,15.30
2007,07,06,22,28,15.30
2007,07,06,22,29,15.30
2007,07,06,22,30,15.30
2007,07,06,22,31,15.20
2007,07,06,22,32,15.20
2007,07,06,22,33,15.20
2007,07,06,22,34,15.10
2007,07,06,22,35,15.00
2007,07,06,22,36,15.00
2007,07,06,22,37,15.00
2007,07,06,22,38,15.00
2007,07,06,22,39,15.00
2007,07,06,22,40,15.00
2007,07,06,22,41,15.00
2007,07,06,22,42,15.00
2007,07,06,22,43,15.00
2007,07,06,22,44,15.00
2007,07,06,22,45,15.00
2007,07,06,22,46,15.00
2007,07,06,22,47,15.00
2007,07,06,22,48,15.00
2007,07,06,22,49,15.00
2007,07,06,22,50,15.00
2007,07,06,22,51,15.00
2007,07,06,22,52,15.00
2007,07,06,22,53,15.00
2007,07,06,22,54,15.00
2007,07,06,22,55,15.00
2007,07,06,22,56,15.00
2007,07,06,22,57,14.90
2007,07,06,22,58,14.90
2007,07,06,22,59,14.80
2007,07,06,23,00,14.80
2007,07,06,23,01,14.80
2007,07,06,23,02,14.70
2007,07,06,23,03,14.70
2007,07,06,23,04,14.70
2007,07,06,23,05,14.60
2007,07,06,23,06,14.60
2007,07,06,23,07,14.50
2007,07,06,23,08,14.50
2007,07,06,23,09,14.50
2007,07,06,23,10,14.50
2007,07,06,23,11,14.40
2007,07,06,23,12,14.40
2007,07,06,23,13,14.40
2007,07,06,23,14,14.40
2007,07,06,23,15,14.40
2007,07,06,23,16,14.40
2007,07,06,23,17,14.40
2007,07,06,23,18,14.40
2007,07,06,23,19,14.50
2007,07,06,23,20,14.50
2007,07,06,23,21,14.50
2007,07,06,23,22,14.50
2007,07,06,23,23,14.50
2007,07,06,23,24,14.40
2007,07,06,23,25,14.40
2007,07,06,23,26,14.40
2007,07,06,23,27,14.40
2007,07,06,23,28,14.40
2007,07,06,23,29,14.40
2007,07,06,23,30,14.40
2007,07,06,23,31,14.40
2007,07,06,23,32,14.40
2007,07,06,23,33,14.30
2007,07,06,23,34,14.30
2007,07,06,23,35,14.30
2007,07,06,23,36,14.30
2007,07,06,23,37,14.30
2007,07,06,23,38,14.30
2007,07,06,23,39,14.30
2007,07,06,23,40,14.20
2007,07,06,23,41,14.20
2007,07,06,23,42,14.20
2007,07,06,23,43,14.20
2007,07,06,23,44,14.20
2007,07,06,23,45,14.20
2007,07,06,23,46,14.20
2007,07,06,23,47,14.10
2007,07,06,23,48,14.10
2007,07,06,23,49,14.10
2007,07,06,23,50,14.10
2007,07,06,23,51,14.10
2007,07,06,23,52,14.10
2007,07,06,23,53,14.10
2007,07,06,23,54,14.10
2007,07,06,23,55,14.10
2007,07,06,23,56,14.10
2007,07,06,23,57,14.10
2007,07,06,23,58,14.10
2007,07,06,23,59,14.10
